Flight Track Log - Related Links

Times and Time Zones

All times are in EDT time to prevent confusion due to time zone crossing. See the UAL4476 flight status page for this flight to view local times or setup timezone preferences in your user account.

Time Position Orientation Groundspeed Altitude Reporting Facility
EDT Latitude Longitude Course Direction KTS MPH feet Rate Location/Type
Sat 08:52:43 AM 41.3919 -81.8811 269° West 159 183 1,900  Level Cleveland Center
Sat 08:53:26 AM 41.3914 -81.9228 269° West 170 196 3,300 1,953 Climbing Cleveland Center
Sat 08:54:09 AM 41.3931 -81.9669 273° West 212 244 4,700 2,272 Climbing Cleveland Center
Sat 08:55:09 AM 41.4425 -82.0014 332° Northwest 182 209 7,200 2,500 Climbing Cleveland Center
Sat 08:56:09 AM 41.4975 -81.9278 45° Northeast 233 268 9,700 1,900 Climbing Cleveland Center
Sat 08:57:09 AM 41.5633 -81.8347 47° Northeast 270 311 11,000 1,150 Climbing Cleveland Center
Sat 08:58:09 AM 41.6289 -81.7306 50° Northeast 334 384 12,000 1,300 Climbing Cleveland Center
Sat 08:59:09 AM 41.7008 -81.6233 48° Northeast 376 433 13,600 1,550 Climbing Cleveland Center
Sat 09:00:09 AM 41.7625 -81.5017 56° Northeast 384 442 15,100 1,500 Climbing Cleveland Center
Sat 09:01:09 AM 41.7844 -81.3544 79° East 384 442 16,600 1,500 Climbing Cleveland Center
Sat 09:02:09 AM 41.8081 -81.2044 78° East 399 459 18,100 1,350 Climbing Cleveland Center
Sat 09:03:09 AM 41.8297 -81.0708 78° East 405 466 19,300 1,150 Climbing Cleveland Center
Sat 09:04:09 AM 41.8553 -80.9150 78° East 415 478 20,400 1,050 Climbing Cleveland Center
Sat 09:05:09 AM 41.8828 -80.7533 77° East 434 499 21,400 1,050 Climbing Cleveland Center
Sat 09:06:09 AM 41.9058 -80.5831 80° East 452 520 22,500 1,050 Climbing Cleveland Center
Sat 09:07:09 AM 41.9347 -80.4128 77° East 460 529 23,500 1,050 Climbing Cleveland Center
Sat 09:08:09 AM 41.9614 -80.2231 79° East 465 535 24,600 1,050 Climbing Cleveland Center
Sat 09:09:09 AM 41.9900 -80.0497 77° East 479 551 25,600 1,200 Climbing Cleveland Center
Sat 09:10:09 AM 42.0161 -79.8706 79° East 479 551 27,000 1,450 Climbing Cleveland Center
Sat 09:11:09 AM 42.0419 -79.6969 79° East 479 551 28,500 1,450 Climbing Cleveland Center
Sat 09:12:09 AM 42.0678 -79.5258 78° East 469 540 29,900 1,350 Climbing Cleveland Center
Sat 09:13:09 AM 42.0931 -79.3547 79° East 463 533 31,200 1,150 Climbing Cleveland Center
Sat 09:14:09 AM 42.1183 -79.1836 79° East 463 533 32,200 1,000 Climbing Cleveland Center
Sat 09:15:09 AM 42.1411 -79.0094 80° East 468 539 33,200 1,000 Climbing Cleveland Center
Sat 09:16:09 AM 42.1656 -78.8322 79° East 473 544 34,200 900 Climbing Cleveland Center
Sat 09:17:09 AM 42.1900 -78.6719 78° East 473 544 35,000 400 Climbing Cleveland Center
Sat 09:18:09 AM 42.2139 -78.4889 80° East 478 550 35,000  Level Cleveland Center
Sat 09:19:09 AM 42.2417 -78.2972 79° East 492 566 35,000  Level Cleveland Center
Sat 09:20:09 AM 42.2647 -78.1056 81° East 512 589 35,000  Level Cleveland Center
Sat 09:21:09 AM 42.2936 -77.9053 79° East 526 605 35,000  Level Cleveland Center
Sat 09:22:09 AM 42.3181 -77.7103 80° East 526 605 35,000  Level Cleveland Center
Sat 09:23:09 AM 42.3403 -77.5211 81° East 521 600 35,000  Level Cleveland Center
Sat 09:25:00 AM 42.3886 -77.1353 80° East 515 593 35,000  Level Boston Center
Sat 09:26:00 AM 42.4133 -76.9375 80° East 528 608 35,000  Level Boston Center
Sat 09:27:00 AM 42.4353 -76.7478 81° East 528 608 35,000  Level Boston Center
Sat 09:28:00 AM 42.4569 -76.5578 81° East 516 594 35,000  Level Boston Center
Sat 09:29:00 AM 42.4806 -76.3678 80° East 516 594 35,000  Level Boston Center
Sat 09:30:12 AM 42.5044 -76.1494 81° East 523 602 35,000 -45 Level Boston Center
Sat 09:31:12 AM 42.5272 -75.9564 81° East 523 602 34,900  Descending Boston Center
Sat 09:32:12 AM 42.5500 -75.7547 81° East 518 596 35,000 50 Climbing Boston Center
Sat 09:33:12 AM 42.5700 -75.5639 82° East 518 596 35,000  Level Boston Center
Sat 09:34:12 AM 42.5900 -75.3619 82° East 518 596 35,000  Level Boston Center
Sat 09:35:12 AM 42.6117 -75.1625 82° East 523 602 35,000 -50 Level Boston Center
Sat 09:36:12 AM 42.6328 -74.9717 81° East 523 602 34,900  Descending Boston Center
Sat 09:37:12 AM 42.6517 -74.7747 83° East 517 595 35,000 50 Climbing Boston Center
Sat 09:38:12 AM 42.6725 -74.5553 83° East 528 608 35,000 -250 Level Boston Center
Sat 09:39:12 AM 42.6925 -74.3639 82° East 528 608 34,500 -700 Descending Boston Center
Sat 09:40:12 AM 42.7228 -74.1669 78° East 523 602 33,600 -900 Descending Boston Center
Sat 09:41:12 AM 42.7464 -73.9697 81° East 523 602 32,700 -900 Descending Boston Center
Sat 09:42:12 AM 42.7742 -73.7667 79° East 528 608 31,800 -850 Descending Boston Center
Sat 09:43:12 AM 42.7758 -73.6056 89° East 511 588 31,000 -850 Descending Boston Center
Sat 09:44:12 AM 42.7481 -73.4439 103° East 473 544 30,100 -950 Descending Boston Center
Sat 09:45:12 AM 42.7183 -73.2767 104° East 449 517 29,100 -950 Descending Boston Center
Sat 09:46:12 AM 42.7028 -73.1011 97° East 459 528 28,200 -1,000 Descending Boston Center
Sat 09:47:12 AM 42.6828 -72.9033 98° East 474 545 27,100 -1,000 Descending Boston Center
Sat 09:48:12 AM 42.6689 -72.7169 96° East 480 552 26,200 -800 Descending Boston Center
Sat 09:49:12 AM 42.6378 -72.5783 107° East 467 537 25,500 -1,000 Descending Boston Center
Sat 09:50:12 AM 42.5756 -72.4372 121° Southeast 430 495 24,200 -1,700 Descending Boston Center
Sat 09:51:12 AM 42.5939 -72.2314 83° East 452 520 22,100 -2,050 Descending Boston Center
Sat 09:52:12 AM 42.5769 -72.0594 98° East 457 526 20,100 -2,350 Descending Boston Center
Sat 09:53:12 AM 42.5514 -71.9017 102° East 444 511 17,400 -3,450 Descending Boston Center
Sat 09:54:12 AM 42.5275 -71.7528 102° East 407 468 13,200 -3,200 Descending Boston Center
Sat 09:55:12 AM 42.5142 -71.6092 97° East 396 456 11,000 -1,592 Descending Boston Center
Sat 09:55:50 AM 42.5000 -71.5167 102° East 363 418 10,600 -1,163 Descending KA90
Sat 09:56:50 AM 42.5000 -71.4000 90° East 324 373 9,100 -1,524 Descending KA90
Sat 09:57:56 AM 42.4833 -71.2667 100° East 311 358 7,400 -1,429 Descending KA90
Sat 09:58:56 AM 42.4833 -71.1500 90° East 304 350 6,100 -737 Descending KA90
Sat 09:59:50 AM 42.4667 -71.0667 105° East 296 341 6,000 -650 Descending KA90
Sat 10:00:56 AM 42.4500 -70.9500 101° East 267 307 4,800 -952 Descending KA90
Sat 10:01:56 AM 42.4667 -70.8667 75° East 242 278 4,000 -711 Descending KA90
Sat 10:02:12 AM 42.4683 -70.8414 85° East 250 288 3,900 -711 Descending Boston Center
Sat 10:03:12 AM 42.4839 -70.7594 76° East 245 282 3,100 -500 Descending Boston Center
Sat 10:04:12 AM 42.4414 -70.7128 141° Southeast 197 227 2,900 -50 Descending Boston Center
Sat 10:05:13 AM 42.4044 -70.7475 215° Southwest 127 146 3,000 -50 Climbing Boston Center
Sat 10:06:12 AM 42.3947 -70.8011 256° West 107 123 2,800 -555 Descending Boston Center
Sat 10:07:12 AM 42.3831 -70.8633 256° West 134 154 1,900 -818 Descending Boston Center
Sat 10:08:02 AM 42.3833 -70.9000 271° West 144 166 1,300 -692 Descending KA90
Sat 10:08:56 AM 42.3667 -70.9500 246° West 124 143 700 -667 Descending KA90

Login

Don't have an account? Register now (free) for customized features, flight alerts, and more!